Regional Weather Roundup
Issued by NWS

Home | Current Version | Previous Version | Text Only | Print | Product List | Glossary Off
Versions: 1 2 3 4 5 6 7 8 9 10 11 12 13 14 15 16 17 18 19 20 21 22 23 24 25 26 27 28 29 30 31 32 33 34 35 36 37 38 39 40 41 42 43 44 45 46 47 48 49 50

000
ASUS45 KABQ 290401
RWRNM
WEATHER ROUNDUP FOR NEW MEXICO
NATIONAL WEATHER SERVICE ALBUQUERQUE NM
1000 PM MDT MON JUL 28 2014

NOTE: "FAIR" MEANS FEW OR NO CLOUDS BELOW 12,000 FEET AGL WITH NO
       SIGNIFICANT WEATHER OR OBSTRUCTIONS TO VISION.

      THIS PRODUCT IS RELEASED AS TWO VERSIONS.  ONE VERSION NEAR
      THE TOP OF THE HOUR CONTAINING PRELIMINARY DATA FROM ALBUQUERQUE
      AND OTHER STATIONS.  A FINAL VERSION WITH ADDITIONAL DATA IS
      ISSUED ABOUT 10 MINUTES AFTER THE HOUR.

NMZ501-503-504-510>518-290500-
NORTHWEST PLATEAU/NORTHCENTRAL MOUNTAINS

CITY           SKY/WX    TMP DP  RH WIND       PRES   REMARKS
FARMINGTON     MOCLDY    67  58  72 SE12      30.35R
LOS ALAMOS     MOCLDY    63  54  73 CALM      30.47S
SANTA FE       CLOUDY    65  57  75 SW9       30.42R
TAOS           CLOUDY    63  52  67 CALM      30.46S
ANGEL FIRE     CLOUDY    58  55  87 CALM      30.55S

$$
NMZ402-403-502-505>509-290500-
WESTCENTRAL MOUNTAINS/SOUTHWEST MOUNTAINS

CITY           SKY/WX    TMP DP  RH WIND       PRES   REMARKS
GALLUP         CLOUDY    63  59  87 CALM      30.39R

$$
NMZ407-409-411-412-290500-
SOUTHERN DESERTS

CITY           SKY/WX    TMP DP  RH WIND       PRES   REMARKS
LORDSBURG      FAIR      77  59  53 S3        30.20R
DEMING         PTCLDY    77  60  55 E8        30.21R
LAS CRUCES     CLOUDY    74  65  73 NE5       30.25R
HOLLOMAN AFB   MOCLDY    77  63  61 NW8       30.19R
T OR C         MOCLDY    76  57  51 VRB6      30.28R

$$
NMZ519>523-290500-
CENTRAL VALLEYS/CENTRAL HIGHLANDS

CITY           SKY/WX    TMP DP  RH WIND       PRES   REMARKS
ALBUQUERQUE    CLOUDY    72  58  61 E13       30.32R
DOUBLE EAGLE   CLOUDY    72  57  60 E6        30.36R
CLINES CORNERS LGT RAIN  59  57  93 E7        30.46R
BELEN          CLOUDY    75  56  53 NE9       30.30R
SOCORRO        NOT AVBL

$$
NMZ524>526-539-540-290500-
SOUTHCENTRAL MOUNTAINS

CITY           SKY/WX    TMP DP  RH WIND       PRES   REMARKS
RUIDOSO        NOT AVBL

$$
NMZ527>531-290500-
NORTHEAST HIGHLANDS/NORTHEAST PLAINS

CITY           SKY/WX    TMP DP  RH WIND       PRES   REMARKS
LAS VEGAS      MOCLDY    63  57  81 W5        30.45R
RATON          CLOUDY    60  56  86 E10       30.41R
CLAYTON        MOCLDY    67  62  84 SE10      30.33S

$$
NMZ532>537-290500-
EASTCENTRAL PLAINS

CITY           SKY/WX    TMP DP  RH WIND       PRES   REMARKS
TUCUMCARI      MOCLDY    73  59  61 S7        30.27R
CANNON AFB     CLOUDY    71  70  96 SE3       30.31R
CLOVIS AIRPORT NOT AVBL

$$
NMZ028-029-538-290500-
SOUTHEAST PLAINS

CITY           SKY/WX    TMP DP  RH WIND       PRES   REMARKS
ROSWELL        MOCLDY    80  64  58 E10       30.18R
ARTESIA        PTCLDY    84  59  42 E15G21    30.17R
CARLSBAD       PTCLDY    87  60  40 E17G25    30.14R
HOBBS          CLEAR     81  61  50 E15G21    30.23R


$$


USA.gov is the U.S. government's official web portal to all federal, state and local government web resources and services.